Location: C�an Torras
(41.5052°N, 1.9280°E)
Time: 18:58:08
(UTC+00:00)

CZ-4 R/B - Pass Details

Date: 20 January 2021
Orbit: 580 x 589 km, 97.7° (Epoch: 03 March)

Event Time Altitude Azimuth Distance (km) Brightness Sun altitude
Rises 18:02:55 0° 160° (SSE) 2,791 7.9 -13.0°
Reaches altitude 10° 18:05:04 10° 158° (SSE) 1,898 7.0 -13.4°
Maximum altitude 18:09:09 70° 75° (ENE) 624 4.3 -14.1°
Drops below altitude 10° 18:13:18 10° 352° (N) 1,919 7.0 -14.9°
Sets 18:15:28 0° 350° (N) 2,825 7.9 -15.2°
